Back to catalog

COSMOS 1275 DEB

AlivePO
NORAD 42220·DEBRIS·🇷🇺 Russia

Launched Jun 4, 1981 from Plesetsk Cosmodrome

Loading…

Next Passes (next 24 hours)

TLE

FreshSource: Space-Track

Epoch: Sep 13, 2026, 03:55 UTC

1 42220U 81053UL  26256.16385627  .00006999  00000-0  14160-2 0  9993
2 42220  82.9056 217.2291 0019576 358.3115   1.8019 14.61105299668726

Track COSMOS 1275 DEB in real time with AllMySat

Download on the App Store